Location: Bremen
(53.0796°N, 8.8241°E)
Time: 18:24:04
(UTC+02:00)

ISS - Pass Details

Date: 12 January 2018
Orbit: 401 x 409 km, 51.6° (Epoch: 22 August)

Event Time Altitude Azimuth Distance (km) Brightness Sun altitude
Exits shadow 05:04:01 12° 116° (ESE) 1,406 -0.4 -30.4°
Drops below altitude 10° 05:04:16 10° 115° (ESE) 1,509 -0.2 -30.4°
Enters shadow 06:01:10 -67° 300° (WNW) 12,157 3.6 -21.8°
